Miscellaneous Local Product
Issued by NWS North Platte, NE

Home | Current Version | Previous Version | Graphics & Text | Print | Product List | Glossary Off
Versions: 1 2 3 4 5 6 7 8 9 10 11 12 13 14 15 16 17 18 19 20 21 22 23 24 25 26 27 28 29 30 31 32 33 34 35 36 37 38 39 40 41 42 43 44 45 46 47 48 49 50

000
AXUS43 KLBF 261210
MISLBF


WESTERN AND NORTH CENTRAL NEBRASKA HOURLY WEATHER ROUNDUP
NATIONAL WEATHER SERVICE NORTH PLATTE NE
700 AM CDT SUN MAR 26 2017

NOTE: "FAIR" INDICATES FEW OR NO CLOUDS BELOW 12,000 FEET WITH NO
SIGNIFICANT WEATHER AND/OR OBSTRUCTIONS TO VISIBILITY.

NOTE: STATIONS NOT REPORTING VARIABLES SUCH AS SKY/WEATHER OR
PRESSURE ARE PROVIDED BY RAWS AND APRS NETWORKS AND ARE NOT UNDER
NATIONAL WEATHER SERVICE QUALITY CONTROL.

...OBSERVATIONS IN AND NEAR THE EASTERN PANHANDLE OF NEBRASKA...

CITY           SKY/WX    TMP DP  RH WIND       PRES   REMARKS
PINE RIDGE     CLOUDY    47  31  53 CALM      29.81R
CHADRON        CLOUDY    45  32  60 NE6       29.81R
ALLIANCE       PTCLDY    37  35  92 SE6       29.79F WCI  32
SIDNEY         CLOUDY    41  31  67 SE3       29.81S
CRESCENT LAKE    N/A     38  38 100 SE5         N/A  WCI  34
$$

...OBSERVATIONS IN NORTHERN NEBRASKA AND FAR SOUTHERN SOUTH DAKOTA...

CITY           SKY/WX    TMP DP  RH WIND       PRES   REMARKS
WINNER         CLOUDY    40  38  93 SE6       29.87S
VALENTINE      CLOUDY    38  36  92 S6        29.86R FOG     WCI  33
THEDFORD       CLOUDY    39  38  95 SW6       29.87R WCI  35
AINSWORTH      CLOUDY    38  38 100 S3        29.87R FOG
O`NEILL        FOG       39  39 100 N3        29.88S VSB 1/2
ORD            CLOUDY    40  38  93 CALM      29.86R FOG
BROKEN BOW     CLOUDY    41  40  96 SW6       29.86R FOG
VALENTINE NWR    N/A     37  37 100 S6          N/A  WCI  32
HALSEY           N/A     37  37 100 CALM        N/A
BUTTE            N/A     37  36  97 CALM        N/A
CHAMBERS         N/A     39  38  99 CALM        N/A
EWING            N/A     38  38 100 CALM        N/A
$$

...OBSERVATIONS IN SOUTHWEST NEBRASKA AND FAR NORTHEAST COLORADO...

CITY           SKY/WX    TMP DP  RH WIND       PRES   REMARKS
HOLYOKE        DRIZZLE   41  37  87 NE3       29.82S
IMPERIAL       FOG       39  39 100 SE3       29.84R VSB 1/2
OGALLALA       CLOUDY    40  39  97 SE5       29.84S FOG
NORTH PLATTE   CLOUDY    40  37  89 S6        29.85F
MCCOOK         CLOUDY    40  40 100 E5        29.86S FOG
LEXINGTON      CLOUDY    40  38  92 CALM      29.87R
STAPLETON        N/A     37  36  95 CALM        N/A
GOTHENBURG       N/A     41  36  81 SE3         N/A
CALLAWAY         N/A     38  37  96 S5          N/A  WCI  34
$$

...OBSERVATIONS IN CENTRAL LINCOLN COUNTY AREA...

CITY           SKY/WX    TMP DP  RH WIND       PRES   REMARKS
N.P. AIRPORT   CLOUDY    40  37  89 S6        29.85F
N.P. DOWNTOWN    N/A     39  37  94 CALM        N/A
N.P. SOUTHEAST   N/A     39  37  92 CALM        N/A
N.P. HILLCREST   N/A     39  38  95 W3          N/A
$$

...SOME OBSERVATIONS FROM AROUND THE REGION...

CITY           SKY/WX    TMP DP  RH WIND       PRES   REMARKS
DENVER         CLOUDY    42  32  67 NW9       29.79R
LIMON          MIX PCPN  37  36  96 NE10      29.77F WCI  30
ASPEN          CLOUDY    35  34  96 N3        29.89R
LARAMIE        CLOUDY    33  33 100 CALM      29.86R
CASPER         LGT RAIN  36  35  96 N8        29.91S WCI  30
CHEYENNE       CLOUDY    40  34  79 N7        29.84R
SCOTTSBLUFF    CLOUDY    42  30  62 E7        29.79S
GRAND ISLAND   CLOUDY    38  38 100 N5        29.88S FOG     WCI  34
OMAHA          CLOUDY    40  37  89 NW8       29.90R WCI  34
SIOUX FALLS    CLOUDY    38  37  97 N5        29.92S FOG     WCI  34
PIERRE         CLOUDY    40  37  89 E8        29.88S WCI  34
RAPID CITY     CLOUDY    41  35  79 N22       29.82F
BISMARCK       CLOUDY    37  34  89 E3        29.93S
KANSAS CITY    CLOUDY    43  41  93 W6        29.90R
HILL CITY      CLOUDY    40  40 100 E3        29.88R FOG
WICHITA        CLOUDY    43  42  97 CALM      29.89S FOG
DODGE CITY     FOG       37  37 100 E9        29.82F VSB 1/4 WCI  30
OKLAHOMA CITY  PTCLDY    43  41  93 SE7       29.88R
DALLAS         PTCLDY    54  48  80 SE6       29.86R
AMARILLO       CLOUDY    46  33  60 SE14      29.74F
$$




USA.gov is the U.S. government's official web portal to all federal, state and local government web resources and services.